Time,TemperatureF,DewpointF,PressureIn,WindDirection,WindDirectionDegrees,WindSpeedMPH,WindSpeedGustMPH,Humidity,HourlyPrecipIn,Conditions,Clouds,dailyrainin,SoftwareType,DateUTC
2013-08-24 00:11:00,58.0,47.0,-100.00,North,-999,0.0,0.0,67,-99.99,,,-99.99,,2013-08-24 07:11:00,
2013-08-24 00:22:00,56.0,47.0,-100.00,North,-999,0.0,0.0,70,-99.99,,,-99.99,,2013-08-24 07:22:00,
2013-08-24 00:43:00,56.0,47.0,-100.00,North,-999,0.0,0.0,70,-99.99,,,-99.99,,2013-08-24 07:43:00,
2013-08-24 00:53:00,56.0,46.0,-100.00,North,-999,0.0,0.0,70,-99.99,,,-99.99,,2013-08-24 07:53:00,
2013-08-24 01:12:00,56.0,46.0,-100.00,North,-999,0.0,0.0,71,-99.99,,,-99.99,,2013-08-24 08:12:00,
2013-08-24 01:22:00,56.0,47.0,-100.00,North,-999,0.0,0.0,71,-99.99,,,-99.99,,2013-08-24 08:22:00,
2013-08-24 01:42:00,56.0,47.0,-100.00,North,-999,0.0,0.0,71,-99.99,,,-99.99,,2013-08-24 08:42:00,
2013-08-24 01:52:00,56.0,47.0,-100.00,North,-999,0.0,0.0,71,-99.99,,,-99.99,,2013-08-24 08:52:00,
2013-08-24 02:11:00,55.0,46.0,-100.00,North,-999,0.0,0.0,72,-99.99,,,-99.99,,2013-08-24 09:11:00,
2013-08-24 02:22:00,55.0,46.0,-100.00,North,-999,0.0,0.0,72,-99.99,,,-99.99,,2013-08-24 09:22:00,
2013-08-24 02:44:00,54.0,46.0,-100.00,North,-999,0.0,0.0,74,-99.99,,,-99.99,,2013-08-24 09:44:00,
2013-08-24 02:53:00,53.0,45.0,-100.00,North,-999,0.0,0.0,75,-99.99,,,-99.99,,2013-08-24 09:53:00,
2013-08-24 03:13:00,52.0,46.0,-100.00,North,-999,0.0,0.0,78,-99.99,,,-99.99,,2013-08-24 10:13:00,
2013-08-24 03:23:00,52.0,46.0,-100.00,North,-999,0.0,0.0,80,-99.99,,,-99.99,,2013-08-24 10:23:00,
2013-08-24 03:42:00,51.0,46.0,-100.00,North,-999,0.0,0.0,83,-99.99,,,-99.99,,2013-08-24 10:42:00,
2013-08-24 03:53:00,50.0,46.0,-100.00,North,-999,0.0,0.0,85,-99.99,,,-99.99,,2013-08-24 10:53:00,
2013-08-24 04:12:00,50.0,46.0,-100.00,North,-999,0.0,0.0,86,-99.99,,,-99.99,,2013-08-24 11:12:00,
2013-08-24 04:22:00,49.0,46.0,-100.00,North,-999,0.0,0.0,87,-99.99,,,-99.99,,2013-08-24 11:22:00,
2013-08-24 04:42:00,49.0,46.0,-100.00,North,-999,0.0,0.0,89,-99.99,,,-99.99,,2013-08-24 11:42:00,
2013-08-24 04:52:00,49.0,46.0,-100.00,North,-999,0.0,0.0,90,-99.99,,,-99.99,,2013-08-24 11:52:00,
2013-08-24 05:11:00,48.0,46.0,-100.00,North,-999,0.0,0.0,90,-99.99,,,-99.99,,2013-08-24 12:11:00,
2013-08-24 05:21:00,49.0,46.0,-100.00,North,-999,0.0,0.0,91,-99.99,,,-99.99,,2013-08-24 12:21:00,
2013-08-24 05:42:00,49.0,47.0,-100.00,North,-999,0.0,0.0,91,-99.99,,,-99.99,,2013-08-24 12:42:00,
2013-08-24 05:52:00,50.0,47.0,-100.00,North,-999,0.0,0.0,91,-99.99,,,-99.99,,2013-08-24 12:52:00,
2013-08-24 06:11:00,50.0,47.0,-100.00,North,-999,0.0,0.0,91,-99.99,,,-99.99,,2013-08-24 13:11:00,
2013-08-24 06:22:00,50.0,47.0,-100.00,North,-999,0.0,0.0,91,-99.99,,,-99.99,,2013-08-24 13:22:00,
2013-08-24 06:42:00,50.0,47.0,-100.00,North,-999,0.0,0.0,90,-99.99,,,-99.99,,2013-08-24 13:42:00,
2013-08-24 06:52:00,50.0,46.0,-100.00,North,-999,0.0,0.0,89,-99.99,,,-99.99,,2013-08-24 13:52:00,
2013-08-24 07:11:00,50.0,47.0,-100.00,North,-999,0.0,0.0,89,-99.99,,,-99.99,,2013-08-24 14:11:00,
2013-08-24 07:22:00,50.0,46.0,-100.00,North,-999,0.0,0.0,88,-99.99,,,-99.99,,2013-08-24 14:22:00,
2013-08-24 07:42:00,50.0,46.0,-100.00,North,-999,0.0,0.0,89,-99.99,,,-99.99,,2013-08-24 14:42:00,
2013-08-24 07:52:00,50.0,47.0,-100.00,North,-999,0.0,0.0,88,-99.99,,,-99.99,,2013-08-24 14:52:00,
2013-08-24 08:11:00,52.0,48.0,-100.00,North,-999,0.0,0.0,86,-99.99,,,-99.99,,2013-08-24 15:11:00,
2013-08-24 08:22:00,54.0,48.0,-100.00,North,-999,0.0,0.0,82,-99.99,,,-99.99,,2013-08-24 15:22:00,
2013-08-24 08:45:00,56.0,49.0,-100.00,North,-999,0.0,0.0,78,-99.99,,,-99.99,,2013-08-24 15:45:00,
2013-08-24 08:54:00,56.0,48.0,-100.00,North,-999,0.0,0.0,75,-99.99,,,-99.99,,2013-08-24 15:54:00,
2013-08-24 09:13:00,57.0,49.0,-100.00,North,-999,0.0,0.0,74,-99.99,,,-99.99,,2013-08-24 16:13:00,
2013-08-24 09:23:00,58.0,48.0,-100.00,North,-999,0.0,0.0,68,-99.99,,,-99.99,,2013-08-24 16:23:00,
2013-08-24 09:42:00,59.0,47.0,-100.00,North,-999,0.0,0.0,63,-99.99,,,-99.99,,2013-08-24 16:42:00,
2013-08-24 09:53:00,61.0,45.0,-100.00,North,-999,0.0,0.0,57,-99.99,,,-99.99,,2013-08-24 16:53:00,
2013-08-24 10:12:00,63.0,44.0,-100.00,North,-999,0.0,0.0,49,-99.99,,,-99.99,,2013-08-24 17:12:00,
2013-08-24 10:23:00,65.0,43.0,-100.00,North,-999,0.0,0.0,45,-99.99,,,-99.99,,2013-08-24 17:23:00,
2013-08-24 10:42:00,66.0,42.0,-100.00,North,-999,0.0,0.0,42,-99.99,,,-99.99,,2013-08-24 17:42:00,
2013-08-24 10:52:00,67.0,42.0,-100.00,North,-999,0.0,0.0,40,-99.99,,,-99.99,,2013-08-24 17:52:00,
2013-08-24 11:13:00,68.0,41.0,-100.00,North,-999,0.0,0.0,37,-99.99,,,-99.99,,2013-08-24 18:13:00,
2013-08-24 11:22:00,69.0,42.0,-100.00,North,-999,0.0,0.0,37,-99.99,,,-99.99,,2013-08-24 18:22:00,
2013-08-24 11:42:00,71.0,43.0,-100.00,North,-999,0.0,0.0,36,-99.99,,,-99.99,,2013-08-24 18:42:00,
2013-08-24 11:53:00,72.0,43.0,-100.00,North,-999,0.0,0.0,35,-99.99,,,-99.99,,2013-08-24 18:53:00,
2013-08-24 12:12:00,72.0,42.0,-100.00,North,-999,0.0,0.0,34,-99.99,,,-99.99,,2013-08-24 19:12:00,
2013-08-24 12:21:00,73.0,42.0,-100.00,North,-999,0.0,0.0,32,-99.99,,,-99.99,,2013-08-24 19:21:00,
2013-08-24 12:42:00,73.0,42.0,-100.00,North,-999,0.0,0.0,32,-99.99,,,-99.99,,2013-08-24 19:42:00,
2013-08-24 12:52:00,75.0,43.0,-100.00,North,-999,0.0,0.0,32,-99.99,,,-99.99,,2013-08-24 19:52:00,
2013-08-24 13:11:00,76.0,43.0,-100.00,North,-999,0.0,0.0,31,-99.99,,,-99.99,,2013-08-24 20:11:00,
2013-08-24 13:22:00,77.0,43.0,-100.00,North,-999,0.0,0.0,29,-99.99,,,-99.99,,2013-08-24 20:22:00,
2013-08-24 13:42:00,77.0,43.0,-100.00,North,-999,0.0,0.0,29,-99.99,,,-99.99,,2013-08-24 20:42:00,
2013-08-24 13:52:00,79.0,43.0,-100.00,North,-999,0.0,0.0,28,-99.99,,,-99.99,,2013-08-24 20:52:00,
2013-08-24 14:11:00,80.0,44.0,-100.00,North,-999,0.0,0.0,28,-99.99,,,-99.99,,2013-08-24 21:11:00,
2013-08-24 14:22:00,80.0,44.0,-100.00,North,-999,0.0,0.0,28,-99.99,,,-99.99,,2013-08-24 21:22:00,
2013-08-24 14:43:00,75.0,41.0,-100.00,North,-999,0.0,0.0,30,-99.99,,,-99.99,,2013-08-24 21:43:00,
2013-08-24 14:55:00,74.0,42.0,-100.00,North,-999,0.0,0.0,32,-99.99,,,-99.99,,2013-08-24 21:55:00,
2013-08-24 15:14:00,75.0,43.0,-100.00,North,-999,0.0,0.0,32,-99.99,,,-99.99,,2013-08-24 22:14:00,
2013-08-24 15:23:00,78.0,43.0,-100.00,North,-999,0.0,0.0,29,-99.99,,,-99.99,,2013-08-24 22:23:00,
2013-08-24 15:43:00,77.0,42.0,-100.00,North,-999,0.0,0.0,29,-99.99,,,-99.99,,2013-08-24 22:43:00,
2013-08-24 15:53:00,80.0,44.0,-100.00,North,-999,0.0,0.0,28,-99.99,,,-99.99,,2013-08-24 22:53:00,
2013-08-24 16:12:00,77.0,43.0,-100.00,North,-999,0.0,0.0,29,-99.99,,,-99.99,,2013-08-24 23:12:00,
2013-08-24 16:22:00,75.0,42.0,-100.00,North,-999,0.0,0.0,30,-99.99,,,-99.99,,2013-08-24 23:22:00,
2013-08-24 16:42:00,78.0,43.0,-100.00,North,-999,0.0,0.0,29,-99.99,,,-99.99,,2013-08-24 23:42:00,
2013-08-24 16:53:00,78.0,43.0,-100.00,North,-999,0.0,0.0,29,-99.99,,,-99.99,,2013-08-24 23:53:00,
2013-08-24 17:11:00,78.0,43.0,-100.00,North,-999,0.0,0.0,29,-99.99,,,-99.99,,2013-08-25 00:11:00,
2013-08-24 17:22:00,77.0,42.0,-100.00,North,-999,0.0,0.0,29,-99.99,,,-99.99,,2013-08-25 00:22:00,
2013-08-24 17:42:00,75.0,42.0,-100.00,North,-999,0.0,0.0,31,-99.99,,,-99.99,,2013-08-25 00:42:00,
2013-08-24 17:52:00,71.0,41.0,-100.00,North,-999,0.0,0.0,33,-99.99,,,-99.99,,2013-08-25 00:52:00,
2013-08-24 18:11:00,68.0,41.0,-100.00,North,-999,0.0,0.0,37,-99.99,,,-99.99,,2013-08-25 01:11:00,
2013-08-24 18:22:00,67.0,42.0,-100.00,North,-999,0.0,0.0,40,-99.99,,,-99.99,,2013-08-25 01:22:00,
2013-08-24 18:42:00,67.0,43.0,-100.00,North,-999,0.0,0.0,42,-99.99,,,-99.99,,2013-08-25 01:42:00,
2013-08-24 18:52:00,67.0,43.0,-100.00,North,-999,0.0,0.0,42,-99.99,,,-99.99,,2013-08-25 01:52:00,
2013-08-24 19:11:00,66.0,43.0,-100.00,North,-999,0.0,0.0,43,-99.99,,,-99.99,,2013-08-25 02:11:00,
2013-08-24 19:22:00,66.0,43.0,-100.00,North,-999,0.0,0.0,44,-99.99,,,-99.99,,2013-08-25 02:22:00,
2013-08-24 19:42:00,66.0,44.0,-100.00,North,-999,0.0,0.0,45,-99.99,,,-99.99,,2013-08-25 02:42:00,
2013-08-24 19:52:00,65.0,44.0,-100.00,North,-999,0.0,0.0,45,-99.99,,,-99.99,,2013-08-25 02:52:00,
2013-08-24 20:11:00,65.0,44.0,-100.00,North,-999,0.0,0.0,46,-99.99,,,-99.99,,2013-08-25 03:11:00,
2013-08-24 20:23:00,65.0,44.0,-100.00,North,-999,0.0,0.0,46,-99.99,,,-99.99,,2013-08-25 03:23:00,
2013-08-24 20:44:00,63.0,44.0,-100.00,North,-999,0.0,0.0,49,-99.99,,,-99.99,,2013-08-25 03:44:00,
2013-08-24 20:54:00,59.0,49.0,-100.00,North,-999,0.0,0.0,68,-99.99,,,-99.99,,2013-08-25 03:54:00,
2013-08-24 21:02:00,-999.0,-99.9,-100.00,North,-999,0.0,0.0,-999,-99.99,,,-99.99,,2013-08-25 04:02:00,
2013-08-24 21:14:00,57.0,52.0,-100.00,North,-999,0.0,0.0,82,-99.99,,,-99.99,,2013-08-25 04:14:00,
2013-08-24 21:25:00,56.0,52.0,-100.00,North,-999,0.0,0.0,87,-99.99,,,-99.99,,2013-08-25 04:25:00,
2013-08-24 21:43:00,56.0,53.0,-100.00,North,-999,0.0,0.0,89,-99.99,,,-99.99,,2013-08-25 04:43:00,
2013-08-24 21:54:00,56.0,53.0,-100.00,North,-999,0.0,0.0,91,-99.99,,,-99.99,,2013-08-25 04:54:00,
2013-08-24 22:12:00,55.0,52.0,-100.00,North,-999,0.0,0.0,91,-99.99,,,-99.99,,2013-08-25 05:12:00,
2013-08-24 22:22:00,54.0,52.0,-100.00,North,-999,0.0,0.0,92,-99.99,,,-99.99,,2013-08-25 05:22:00,
2013-08-24 22:42:00,55.0,52.0,-100.00,North,-999,0.0,0.0,92,-99.99,,,-99.99,,2013-08-25 05:42:00,
2013-08-24 22:52:00,54.0,52.0,-100.00,North,-999,0.0,0.0,92,-99.99,,,-99.99,,2013-08-25 05:52:00,
2013-08-24 23:12:00,54.0,52.0,-100.00,North,-999,0.0,0.0,93,-99.99,,,-99.99,,2013-08-25 06:12:00,
2013-08-24 23:22:00,54.0,52.0,-100.00,North,-999,0.0,0.0,93,-99.99,,,-99.99,,2013-08-25 06:22:00,
2013-08-24 23:43:00,53.0,51.0,-100.00,North,-999,0.0,0.0,93,-99.99,,,-99.99,,2013-08-25 06:43:00,
2013-08-24 23:52:00,53.0,51.0,-100.00,North,-999,0.0,0.0,93,-99.99,,,-99.99,,2013-08-25 06:52:00,